TimeHST,TemperatureF,Dew PointF,Humidity,Sea Level PressureIn,VisibilityMPH,Wind Direction,Wind SpeedMPH,Gust SpeedMPH,PrecipitationIn,Events,Conditions,WindDirDegrees,DateUTC
12:53 AM,66.0,55.9,70,30.02,10.0,NW,4.6,-,N/A,,Partly Cloudy,310,2013-04-02 10:53:00
1:53 AM,64.0,55.9,75,30.01,10.0,Calm,Calm,-,N/A,,Partly Cloudy,0,2013-04-02 11:53:00
2:53 AM,64.9,55.0,70,29.99,10.0,Calm,Calm,-,N/A,,Scattered Clouds,0,2013-04-02 12:53:00
3:53 AM,64.0,54.0,70,29.99,10.0,NNE,3.5,-,N/A,,Scattered Clouds,20,2013-04-02 13:53:00
4:53 AM,64.0,54.0,70,30.00,10.0,NNW,3.5,-,N/A,,Scattered Clouds,330,2013-04-02 14:53:00
5:53 AM,63.0,55.0,75,30.01,10.0,WNW,3.5,-,N/A,,Partly Cloudy,290,2013-04-02 15:53:00
6:53 AM,61.0,55.9,83,30.02,10.0,NNW,3.5,-,N/A,,Partly Cloudy,330,2013-04-02 16:53:00
7:53 AM,68.0,57.0,68,30.04,10.0,North,4.6,-,N/A,,Scattered Clouds,360,2013-04-02 17:53:00
8:53 AM,72.0,55.0,55,30.06,10.0,North,8.1,-,N/A,,Scattered Clouds,350,2013-04-02 18:53:00
9:53 AM,73.9,54.0,50,30.07,10.0,North,10.4,19.6,N/A,,Scattered Clouds,10,2013-04-02 19:53:00
10:53 AM,73.9,52.0,46,30.06,10.0,Variable,5.8,-,N/A,,Scattered Clouds,0,2013-04-02 20:53:00
11:53 AM,73.9,52.0,46,30.05,10.0,Calm,Calm,-,N/A,,Mostly Cloudy,0,2013-04-02 21:53:00
12:53 PM,75.9,53.1,45,30.04,10.0,Variable,3.5,-,N/A,,Mostly Cloudy,0,2013-04-02 22:53:00
1:53 PM,75.0,57.0,53,30.01,10.0,SSW,11.5,-,N/A,,Mostly Cloudy,200,2013-04-02 23:53:00
2:53 PM,75.9,57.0,52,30.00,10.0,SSW,10.4,-,N/A,,Mostly Cloudy,200,2013-04-03 00:53:00
3:53 PM,75.0,57.0,53,30.00,10.0,SSW,9.2,-,N/A,,Mostly Cloudy,200,2013-04-03 01:53:00
4:53 PM,73.0,55.9,55,30.01,10.0,SSW,5.8,-,N/A,,Mostly Cloudy,200,2013-04-03 02:53:00
5:53 PM,73.0,53.1,49,30.02,10.0,NE,11.5,-,N/A,,Mostly Cloudy,50,2013-04-03 03:53:00
6:53 PM,70.0,53.1,55,30.04,10.0,NNE,4.6,-,N/A,,Scattered Clouds,30,2013-04-03 04:53:00
7:53 PM,70.0,55.9,61,30.06,10.0,North,3.5,-,N/A,,Partly Cloudy,350,2013-04-03 05:53:00
8:53 PM,68.0,57.0,68,30.08,10.0,NNW,5.8,-,N/A,,Partly Cloudy,330,2013-04-03 06:53:00
9:53 PM,68.0,57.0,68,30.10,10.0,Variable,6.9,-,N/A,,Partly Cloudy,0,2013-04-03 07:53:00
10:53 PM,66.0,57.9,75,30.10,10.0,NNW,6.9,-,N/A,,Partly Cloudy,330,2013-04-03 08:53:00
11:53 PM,66.0,57.9,75,30.08,10.0,NNW,6.9,-,N/A,,Partly Cloudy,330,2013-04-03 09:53:00